This is the latest recevied weather packets stored in our database for station/object PY2UEP-1. If no packets are shown the sender has not sent any weather packets the latest 1 day(s).
| Time | Temp. | Humidity | Pressure | Rain* | Wind** | Luminosity | Snow |
|---|---|---|---|---|---|---|---|
| 1778003448 | 29.44° C | 47% | 1021.1 hPa | 0 mm | 1.34 m/s, 87° | - | - |
| 1778003148 | 28.89° C | 49% | 1021.1 hPa | 0 mm | 1.34 m/s, 74° | - | - |
| 1778002847 | 29.44° C | 46% | 1021.2 hPa | 0 mm | 1.34 m/s, 57° | - | - |
| 1778002547 | 30° C | 46% | 1021.1 hPa | 0 mm | 1.79 m/s, 60° | - | - |
| 1778002248 | 30° C | 45% | 1021.3 hPa | 0 mm | 1.34 m/s, 34° | - | - |
| 1778001948 | 30° C | 46% | 1021.3 hPa | 0 mm | 1.79 m/s, 33° | - | - |
| 1778001647 | 30° C | 46% | 1021.3 hPa | 0 mm | 1.34 m/s, 69° | - | - |
| 1778001348 | 30° C | 47% | 1021.5 hPa | 0 mm | 1.34 m/s, 59° | - | - |
| 1778001047 | 29.44° C | 47% | 1021.5 hPa | 0 mm | 1.34 m/s, 42° | - | - |
| 1778000747 | 29.44° C | 45% | 1021.5 hPa | 0 mm | 1.34 m/s, 68° | - | - |
| 1778000448 | 29.44° C | 47% | 1021.8 hPa | 0 mm | 1.34 m/s, 31° | - | - |
| 1778000147 | 29.44° C | 47% | 1021.8 hPa | 0 mm | 1.34 m/s, 31° | - | - |
| 1777999847 | 30° C | 47% | 1021.8 hPa | 0 mm | 1.79 m/s, 17° | - | - |
| 1777999548 | 29.44° C | 47% | 1021.8 hPa | 0 mm | 1.79 m/s, 55° | - | - |
| 1777999247 | 29.44° C | 46% | 1021.8 hPa | 0 mm | 1.34 m/s, 64° | - | - |
| 1777998947 | 29.44° C | 47% | 1021.9 hPa | 0 mm | 1.79 m/s, 56° | - | - |
| 1777998648 | 29.44° C | 46% | 1021.9 hPa | 0 mm | 1.79 m/s, 75° | - | - |
| 1777998347 | 29.44° C | 47% | 1021.9 hPa | 0 mm | 1.79 m/s, 41° | - | - |
| 1777998047 | 29.44° C | 46% | 1022 hPa | 0 mm | 2.68 m/s, 38° | - | - |
| 1777997748 | 29.44° C | 46% | 1022 hPa | 0 mm | 1.34 m/s, 14° | - | - |
| 1777997447 | 30° C | 47% | 1022 hPa | 0 mm | 1.34 m/s, 34° | - | - |
| 1777997147 | 29.44° C | 48% | 1022 hPa | 0 mm | 1.34 m/s, 38° | - | - |
| 1777996847 | 29.44° C | 49% | 1022.1 hPa | 0 mm | 1.79 m/s, 7° | - | - |
| 1777996547 | 28.89° C | 48% | 1022.3 hPa | 0 mm | 1.79 m/s, 19° | - | - |
| 1777996247 | 28.89° C | 48% | 1022.3 hPa | 0 mm | 1.79 m/s, 27° | - | - |
* Rain since midnight (hover to see other rain measurements)
** Current wind speed in m/s (hover to see current wind gust speed)